This demonstration page uses our WeatherBlox Daily Observations layout. Learn more.

Left ArrowRight Arrow

Hourly Observations for December 24, 2019

Temp ( °F °C ) Dew Point ( °F °C ) Humidity (%) Winds ( mph kmh ) Pressure ( in mb ) Visibility ( mi km ) Precip ( " mm )
12:31 am 00:31 Cloudy with Mist and Fog 28 -2.2 26 -3.3 92 92 N 5 7 29.96 1015 2 3 0.00 0.00
12:38 am 00:38 Cloudy with Mist and Fog 28 -2 27 -3 93 93 N 3 6 29.96 1015 1 2 0.00 0.00
12:53 am 00:53 Mostly Cloudy with Mist and Fog 28 -2.2 26 -3.3 92 92 E 3 6 29.91 1013 1 2 0.00 0.00
1:13 am 01:13 Mostly Cloudy with Mist and Fog 28 -2.2 27 -2.8 96 96 SE 3 6 29.94 1014 1 1 0.00 0.00
1:53 am 01:53 Mostly Cloudy with Freezing Fog 28 -2.2 27 -2.8 96 96 Calm 29.91 1013 1 1 0.00 0.00
2:12 am 02:12 Mostly Cloudy with Mist and Fog 28 -2.2 27 -2.8 96 96 E 5 7 29.95 1014 1 2 0.00 0.00
2:27 am 02:27 Cloudy with Mist and Fog 28 -2.2 27 -2.8 96 96 Calm 29.95 1014 2 3 0.00 0.00
2:37 am 02:37 Cloudy with Mist and Fog 28 -2.2 26 -3.3 92 92 NE 3 6 29.95 1014 2 2 0.00 0.00
2:44 am 02:44 Mostly Cloudy with Mist and Fog 28 -2.2 26 -3.3 92 92 Calm 29.95 1014 1 1 0.00 0.00
2:53 am 02:53 Mostly Cloudy with Mist and Fog 28 -2.2 26 -3.3 92 92 E 6 9 29.91 1013 1 1 0.00 0.00
3:53 am 03:53 Mostly Cloudy with Freezing Fog 28 -2.2 27 -2.8 96 96 ENE 7 11 29.90 1013 1 1 0.00 0.00
4:53 am 04:53 Mostly Cloudy with Freezing Fog 27 -2.8 26 -3.3 96 96 E 9 15 29.90 1012 1 1 0.00 0.00
5:53 am 05:53 Mostly Cloudy with Freezing Fog 27 -2.8 25 -3.9 92 92 ENE 14 22 29.90 1012 1 1 0.00 0.00
6:17 am 06:17 Cloudy with Mist and Fog 26 -3.3 25 -3.9 96 96 ENE 15 24 29.95 1014 2 2 0.00 0.00
6:41 am 06:41 Cloudy with Mist and Fog 26 -3.3 25 -3.9 96 96 E 14 22 29.94 1014 3 5 0.00 0.00
6:49 am 06:49 Cloudy with Mist and Fog 27 -3 25 -4 93 93 E 13 20 29.93 1014 3 4 0.00 0.00
6:53 am 06:53 Cloudy with Mist and Fog 26 -3.3 25 -3.9 96 96 ENE 9 15 29.89 1012 3 4 0.00 0.00
7:03 am 07:03 Cloudy with Mist and Fog 26 -3.3 25 -3.9 96 96 E 12 19 29.94 1014 2 3 0.00 0.00
7:16 am 07:16 Mostly Cloudy with Mist and Fog 26 -3.3 25 -3.9 96 96 ENE 9 15 29.94 1014 1 2 0.00 0.00
7:31 am 07:31 Mostly Cloudy with Mist and Fog 25 -3.9 24 -4.4 96 96 NE 9 15 29.94 1014 1 1 0.00 0.00
7:45 am 07:45 Cloudy with Mist and Fog 25 -3.9 23 -5 92 92 NE 10 17 29.93 1014 2 2 0.00 0.00
7:53 am 07:53 Cloudy with Mist and Fog 24 -4.4 23 -5 96 96 ENE 10 17 29.88 1012 2 3 0.00 0.00
8:10 am 08:10 Cloudy with Mist and Fog 24 -4.4 23 -5 96 96 ENE 10 17 29.93 1013 4 6 0.00 0.00
8:53 am 08:53 Cloudy 23 -5 22 -5.6 96 96 ENE 12 19 29.88 1012 10 16 0.00 0.00
9:05 am 09:05 Cloudy 23 -5 21 -6.1 92 92 ENE 13 20 29.94 1014 10 16 0.00 0.00
9:53 am 09:53 Cloudy 23 -5 22 -5.6 96 96 ENE 13 20 29.89 1012 10 16 0.00 0.00
10:53 am 10:53 Cloudy 25 -3.9 23 -5 92 92 ENE 13 20 29.87 1012 10 16 0.00 0.00
11:53 am 11:53 Cloudy 26 -3.3 24 -4.4 92 92 ENE 10 17 29.84 1010 10 16 0.00 0.00
12:53 pm 12:53 Cloudy 26 -3.3 25 -3.9 96 96 ENE 13 20 29.80 1009 10 16 0.00 0.00
1:53 pm 13:53 Cloudy 26 -3.3 25 -3.9 96 96 ENE 10 17 29.79 1009 10 16 0.00 0.00
2:53 pm 14:53 Cloudy with Light Snow 26 -3.3 25 -3.9 96 96 E 7 11 29.79 1009 7 11 0.00 0.00
3:16 pm 15:16 Cloudy 26 -3.3 25 -3.9 96 96 NE 8 13 29.83 1010 9 14 0.00 0.00
3:27 pm 15:27 Cloudy 26 -3.3 25 -3.9 96 96 E 8 13 29.84 1011 9 14 0.00 0.00
3:39 pm 15:39 Cloudy with Light Snow 26 -3.3 24 -4.4 92 92 ENE 9 15 29.84 1011 2 3 0.00 0.00
3:53 pm 15:53 Cloudy with Light Snow 26 -3.3 24 -4.4 92 92 NE 9 15 29.78 1008 4 6 0.01 0.25
4:34 pm 16:34 Cloudy 26 -3.3 24 -4.4 92 92 E 9 15 29.83 1010 10 16 0.00 0.00
4:53 pm 16:53 Cloudy 26 -3.3 24 -4.4 92 92 ENE 12 19 29.80 1009 10 16 0.00 0.00
5:53 pm 17:53 Cloudy 26 -3.3 24 -4.4 92 92 ENE 6 9 29.80 1009 10 16 0.00 0.00
6:53 pm 18:53 Cloudy 26 -3.3 25 -3.9 96 96 ENE 5 7 29.80 1009 10 16 0.00 0.00
7:00 pm 19:00 Cloudy 26 -3.3 25 -3.9 96 96 E 3 6 29.83 1010 10 16 0.00 0.00
7:07 pm 19:07 Cloudy 26 -3.3 25 -3.9 96 96 Calm 29.83 1010 10 16 0.00 0.00
7:45 pm 19:45 Cloudy 27 -2.8 25 -3.9 92 92 ENE 5 7 29.83 1010 10 16 0.00 0.00
7:53 pm 19:53 Cloudy 26 -3.3 25 -3.9 96 96 E 6 9 29.79 1009 10 16 0.00 0.00
8:10 pm 20:10 Cloudy 27 -3 25 -4 93 93 ENE 6 9 29.83 1010 10 16 0.00 0.00
8:33 pm 20:33 Cloudy 27 -2.8 25 -3.9 92 92 E 3 6 29.83 1010 10 16 0.00 0.00
8:53 pm 20:53 Cloudy with Light Snow 27 -2.8 25 -3.9 92 92 NE 3 6 29.78 1009 8 13 0.00 0.00
9:27 pm 21:27 Cloudy with Mist and Fog 26 -3.3 25 -3.9 96 96 ENE 3 6 29.83 1010 6 10 0.00 0.00
9:50 pm 21:50 Cloudy 27 -3 25 -4 93 93 Calm 29.83 1010 7 11 0.00 0.00
9:53 pm 21:53 Cloudy 27 -2.8 25 -3.9 92 92 Calm 29.80 1009 8 13 0.00 0.00
10:53 pm 22:53 Cloudy 27 -2.8 25 -3.9 92 92 E 5 7 29.81 1010 10 16 0.00 0.00
11:44 pm 23:44 Cloudy 27 -2.8 25 -3.9 92 92 Calm 29.84 1010 9 14 0.00 0.00
11:53 pm 23:53 Cloudy 27 -2.8 25 -3.9 92 92 Calm 29.80 1009 9 14 0.00 0.00

Powered by AerisWeather